This is the latest recevied weather packets stored in our database for station/object K9ZOG. If no packets are shown the sender has not sent any weather packets the latest 1 day(s).
| Time | Temp. | Humidity | Pressure | Rain* | Wind** | Luminosity | Snow |
|---|---|---|---|---|---|---|---|
| 1778025552 | 10.56° C | 46% | 1008.6 hPa | 0 mm | 0.45 m/s, 175° | 38 W/m² | - |
| 1778025252 | 10.56° C | 46% | 1008.6 hPa | 0 mm | 0.45 m/s, 183° | 40 W/m² | - |
| 1778024953 | 10.56° C | 46% | 1008.5 hPa | 0 mm | 0.89 m/s, 183° | 39 W/m² | - |
| 1778024653 | 10.56° C | 46% | 1008.5 hPa | 0 mm | 0.45 m/s, 250° | 42 W/m² | - |
| 1778024353 | 10.56° C | 45% | 1008.6 hPa | 0 mm | 0 m/s | 55 W/m² | - |
| 1778024054 | 10.56° C | 44% | 1008.6 hPa | 0 mm | 0.89 m/s, 177° | 58 W/m² | - |
| 1778023753 | 11.11° C | 45% | 1008.6 hPa | 0 mm | 0 m/s | 74 W/m² | - |
| 1778023452 | 11.11° C | 45% | 1008.6 hPa | 0 mm | 0 m/s | 74 W/m² | - |
| 1778023152 | 11.11° C | 44% | 1008.6 hPa | 0 mm | 0.45 m/s, 174° | 80 W/m² | - |
| 1778022852 | 11.11° C | 44% | 1008.7 hPa | 0 mm | 0.45 m/s, 266° | 86 W/m² | - |
| 1778022553 | 11.11° C | 45% | 1008.6 hPa | 0 mm | 0 m/s | 80 W/m² | - |
| 1778022262 | 11.11° C | 45% | 1008.6 hPa | 0 mm | 0.45 m/s, 175° | 87 W/m² | - |
| 1778021954 | 11.11° C | 44% | 1008.7 hPa | 0 mm | 0.89 m/s, 190° | 101 W/m² | - |
| 1778021654 | 11.11° C | 45% | 1008.7 hPa | 0 mm | 0 m/s | 105 W/m² | - |
| 1778021354 | 11.11° C | 45% | 1008.7 hPa | 0 mm | 0.89 m/s, 187° | 127 W/m² | - |
| 1778021052 | 11.11° C | 43% | 1008.8 hPa | 0 mm | 0.89 m/s, 172° | 119 W/m² | - |
| 1778020755 | 11.11° C | 43% | 1008.8 hPa | 0 mm | 0.89 m/s, 175° | 111 W/m² | - |
| 1778020452 | 11.11° C | 44% | 1008.8 hPa | 0 mm | 0.89 m/s, 179° | 122 W/m² | - |
| 1778020153 | 11.11° C | 45% | 1008.7 hPa | 0 mm | 0.45 m/s, 186° | 162 W/m² | - |
| 1778019852 | 10.56° C | 43% | 1008.8 hPa | 0 mm | 0 m/s | 167 W/m² | - |
| 1778019552 | 10.56° C | 44% | 1008.7 hPa | 0 mm | 0.89 m/s, 188° | 150 W/m² | - |
| 1778019254 | 10.56° C | 43% | 1008.7 hPa | 0 mm | 0.89 m/s, 177° | 124 W/m² | - |
| 1778018956 | 11.11° C | 43% | 1008.7 hPa | 0 mm | 0.89 m/s, 192° | 125 W/m² | - |
| 1778018653 | 10.56° C | 44% | 1008.8 hPa | 0 mm | 0.89 m/s, 216° | 171 W/m² | - |
| 1778018353 | 11.11° C | 42% | 1008.8 hPa | 0 mm | 1.79 m/s, 200° | 158 W/m² | - |
* Rain latest hour (hover to see other rain measurements)
** Current wind speed in m/s (hover to see current wind gust speed)